EW0996 Weather Reports


Display with metric or nautical units.
time (UTC)temp
F
wind
direction
speed
MPH
gust
MPH
rain 1hr
in
rain 24hr
in
rain mn
in
humidity
%
barometer
mb
20181114223137 61 205 0.0 2.0 0.00 0.00 0.00 86 1016.0
20181114221633 62 205 1.0 3.0 0.00 0.00 0.00 86 1015.8
20181114220207 62 205 2.0 4.0 0.00 0.00 0.00 86 1015.8
20181114214623 62 201 0.0 0.0 0.00 0.00 0.00 85 1015.8
20181114213135 62 201 0.0 3.0 0.00 0.00 0.00 85 1015.7
20181114211616 62 201 2.0 5.0 0.00 0.00 0.00 84 1015.8
20181114210128 62 265 1.0 3.0 0.00 0.00 0.00 83 1015.9
20181114204559 62 265 0.0 3.0 0.00 0.00 0.00 83 1016.0
20181114203127 62 266 1.0 2.0 0.00 0.00 0.00 83 1015.9
20181114201633 62 266 1.0 3.0 0.00 0.00 0.00 83 1016.0
20181114200124 62 222 1.0 3.0 0.00 0.00 0.00 83 1015.9
20181114194647 62 221 0.0 1.0 0.00 0.00 0.00 83 1015.8
20181114193056 62 222 0.0 2.0 0.00 0.00 0.00 83 1015.8
20181114191558 62 225 0.0 2.0 0.00 0.00 0.00 83 1015.9
20181114190214 62 225 0.0 1.0 0.00 0.00 0.00 82 1016.1
20181114184611 62 225 1.0 3.0 0.00 0.00 0.00 81 1016.1
20181114183137 63 155 0.0 2.0 0.00 0.00 0.00 80 1016.1
20181114181542 64 155 0.0 1.0 0.00 0.00 0.00 79 1016.0
20181114180049 64 155 1.0 2.0 0.00 0.00 0.00 79 1015.8
20181114174617 64 155 1.0 3.0 0.00 0.00 0.00 79 1015.8
20181114173106 65 155 1.0 3.0 0.00 0.00 0.00 79 1015.7
20181114171605 64 155 2.0 5.0 0.00 0.00 0.00 80 1015.7
20181114170057 64 142 3.0 5.0 0.00 0.00 0.00 80 1015.8
20181114164632 64 80 0.0 6.0 0.00 0.00 0.00 81 1015.8
20181114163058 64 118 2.0 6.0 0.00 0.00 0.00 81 1015.7
20181114161609 64 120 2.0 6.0 0.00 0.00 0.00 81 1015.6
20181114160123 64 130 2.0 3.0 0.00 0.00 0.00 80 1015.5
20181114154607 64 134 1.0 2.0 0.00 0.00 0.00 80 1015.4
20181114153059 65 134 1.0 3.0 0.00 0.00 0.00 79 1015.3
20181114151633 65 134 1.0 3.0 0.00 0.00 0.00 79 1015.1
20181114150045 65 82 1.0 2.0 0.00 0.00 0.00 78 1015.0
20181114144632 65 80 1.0 2.0 0.00 0.00 0.00 78 1014.8
20181114143113 65 80 0.0 3.0 0.00 0.00 0.00 79 1014.6
20181114141557 65 80 1.0 3.0 0.00 0.00 0.00 79 1014.4
20181114140059 65 73 4.0 8.0 0.00 0.00 0.00 78 1014.3
20181114134540 65 94 4.0 12.0 0.00 0.00 0.00 78 1014.4
20181114133038 66 71 4.0 7.0 0.00 0.00 0.00 77 1014.3
20181114131536 66 61 4.0 9.0 0.00 0.00 0.00 76 1014.4
20181114130105 66 39 2.0 6.0 0.00 0.00 0.00 75 1014.3
20181114124538 67 82 5.0 9.0 0.00 0.00 0.00 76 1014.4
20181114123029 66 71 3.0 8.0 0.00 0.00 0.00 76 1014.5
20181114121548 66 84 5.0 10.0 0.00 0.00 0.00 76 1014.5
20181114120037 66 96 5.0 14.0 0.00 0.00 0.00 75 1014.6
20181114114555 66 84 8.0 10.0 0.00 0.00 0.00 72 1014.8
20181114113113 67 90 6.0 11.0 0.00 0.00 0.00 71 1014.9
20181114111547 67 76 6.0 12.0 0.00 0.00 0.00 72 1014.8
20181114110025 68 84 5.0 11.0 0.00 0.00 0.00 70 1014.8
20181114104526 70 78 2.0 7.0 0.00 0.00 0.00 69 1014.6
20181114103054 69 34 1.0 4.0 0.00 0.00 0.00 70 1014.5
20181114101536 69 72 2.0 5.0 0.00 0.00 0.00 71 1014.7
20181114100035 69 58 0.0 3.0 0.00 0.00 0.00 74 1015.0
20181114094515 69 55 1.0 4.0 0.00 0.00 0.00 73 1015.1
20181114093012 69 143 0.0 5.0 0.00 0.00 0.00 70 1015.3
20181114084516 69 81 6.0 11.0 0.00 0.00 0.00 69 1015.7
20181114083034 69 66 5.0 12.0 0.00 0.00 0.00 69 1015.8
20181114081512 69 59 7.0 15.0 0.00 0.00 0.00 68 1016.0
20181114080008 69 76 6.0 13.0 0.00 0.00 0.00 69 1016.0
20181114074652 68 63 7.0 14.0 0.00 0.00 0.00 69 1016.0
20181114073144 68 59 7.0 14.0 0.00 0.00 0.00 69 1016.1
20181114071735 68 80 9.0 15.0 0.00 0.00 0.00 68 1016.2
20181114070135 67 58 7.0 13.0 0.00 0.00 0.00 68 1016.3
20181114064625 67 67 7.0 12.0 0.00 0.00 0.00 68 1016.5
20181114063240 67 85 7.0 11.0 0.00 0.00 0.00 69 1016.5
20181114061701 66 38 5.0 14.0 0.00 0.00 0.00 69 1016.3
20181114060111 66 94 8.0 16.0 0.00 0.00 0.00 69 1016.1
20181114054615 65 56 8.0 20.0 0.00 0.00 0.00 69 1016.0
20181114053141 65 51 10.0 19.0 0.00 0.00 0.00 70 1015.9
20181114051603 64 90 9.0 16.0 0.00 0.00 0.00 71 1015.6
20181114050042 64 70 7.0 12.0 0.00 0.00 0.00 72 1015.8
20181114044539 63 66 5.0 10.0 0.00 0.00 0.00 72 1015.8
20181114043022 63 70 5.0 11.0 0.00 0.00 0.00 72 1015.8
20181114041536 63 82 6.0 12.0 0.00 0.00 0.00 72 1015.6
20181114040042 63 97 5.0 15.0 0.00 0.00 0.00 73 1015.4
20181114034533 63 92 4.0 9.0 0.00 0.00 0.00 73 1015.3
20181114033033 63 87 5.0 10.0 0.00 0.00 0.00 73 1015.3
20181114031512 63 81 4.0 8.0 0.00 0.00 0.00 73 1015.4
20181114030030 63 65 5.0 9.0 0.00 0.00 0.00 73 1015.4
20181114024521 63 122 3.0 7.0 0.00 0.00 0.00 72 1015.4
20181114023006 63 111 2.0 4.0 0.00 0.00 0.00 72 1015.5
20181114021508 64 102 1.0 4.0 0.00 0.00 0.00 72 1015.5
20181114020004 63 88 3.0 5.0 0.00 0.00 0.00 72 1015.6
20181114014709 63 107 3.0 6.0 0.00 0.00 0.00 72 1015.7
20181114013207 63 112 2.0 6.0 0.00 0.00 0.00 72 1015.7
20181114011708 64 101 3.0 7.0 0.00 0.00 0.00 72 1015.7
20181114010148 64 74 3.0 9.0 0.00 0.00 0.00 71 1015.9
20181114004725 64 74 2.0 7.0 0.00 0.00 0.00 70 1016.1
20181114003156 64 111 5.0 10.0 0.00 0.00 0.00 70 1016.2
20181114001812 64 65 8.0 14.0 0.00 0.00 0.00 71 1016.3
20181114000123 64 73 5.0 10.0 0.00 0.00 0.00 71 1016.4
20181113234641 64 94 6.0 10.0 0.00 0.00 0.00 70 1016.6
20181113233130 64 88 6.0 10.0 0.00 0.00 0.00 70 1016.8
20181113231634 65 67 5.0 14.0 0.00 0.00 0.00 70 1016.8
20181113230118 65 67 6.0 10.0 0.00 0.00 0.00 70 1016.9
20181113224626 64 103 6.0 11.0 0.00 0.00 0.00 71 1017.1